Location: Escondida
(34.1015°N, 106.8964°W)
Time: 16:19:30
(UTC+00:00)

Tiangong - Visible Passes

Search period start: 14 February 2026 00:00
Search period end: 24 February 2026 00:00
Orbit: 386 x 392 km, 41.5° (Epoch: 13 February)

Date Brightness Start Highest point End Pass type
(mag) Time Alt. Az. Time Alt. Az. Time Alt. Az.
14 Feb 0.2 02:35:32 10° NW 02:37:15 19° NNW 02:37:15 19° NNW visible
15 Feb -0.4 01:36:53 10° WNW 01:39:32 23° N 01:41:46 12° NE visible
16 Feb -0.3 02:16:01 10° NW 02:18:32 21° N 02:18:34 21° N visible
17 Feb -0.2 01:17:27 10° NW 01:19:57 21° N 01:22:26 10° NE visible
17 Feb 0.7 02:54:34 10° NW 02:55:20 15° NW 02:55:20 15° NW visible
18 Feb -0.6 01:56:12 10° NW 01:58:52 24° N 01:59:49 21° NE visible
19 Feb -0.7 02:34:33 10° NW 02:36:37 32° NNW 02:36:37 32° NNW visible
20 Feb -1.0 01:36:10 10° NW 01:39:03 31° NNE 01:41:10 15° ENE visible
20 Feb 1.2 03:12:59 10° WNW 03:13:28 14° WNW 03:13:28 14° WNW visible
21 Feb -2.3 02:14:26 10° WNW 02:17:37 84° NNE 02:18:05 61° ESE visible
22 Feb 0.2 02:53:12 10° W 02:55:06 22° WSW 02:55:06 22° WSW visible
23 Feb -1.2 01:54:20 10° WNW 01:57:24 46° SSW 01:59:55 14° SE visible
